EW2887 Weather Reports


Display with metric or nautical units.
time (UTC)temp
F
wind
direction
speed
MPH
gust
MPH
rain 1hr
in
rain 24hr
in
rain mn
in
humidity
%
barometer
mb
20260906221508 90 134 9.0 15.0 0.00 0.00 0.00 33 1006.0
20260906220024 90 360 6.0 15.0 0.00 0.00 0.00 33 1006.1
20260906214516 90 360 9.0 13.0 0.00 0.00 0.00 33 1006.0
20260906213009 91 360 6.0 14.0 0.00 0.00 0.00 34 1006.0
20260906211504 90 360 11.0 18.0 0.00 0.00 0.00 34 1006.2
20260906210005 91 360 12.0 19.0 0.00 0.00 0.00 34 1006.3
20260906204502 91 190 8.0 17.0 0.00 0.00 0.00 35 1006.4
20260906203005 92 172 11.0 16.0 0.00 0.00 0.00 34 1006.6
20260906201501 92 360 8.0 22.0 0.00 0.00 0.00 34 1006.4
20260906200100 92 136 13.0 23.0 0.00 0.00 0.00 35 1006.5
20260906194605 92 150 16.0 22.0 0.00 0.00 0.00 34 1006.8
20260906193055 91 136 7.0 20.0 0.00 0.00 0.00 35 1007.0
20260906191607 89 360 16.0 22.0 0.00 0.00 0.00 37 1007.2
20260906190053 91 120 13.0 22.0 0.00 0.00 0.00 37 1007.5
20260906184557 91 184 9.0 17.0 0.00 0.00 0.00 37 1007.6
20260906183050 90 360 13.0 19.0 0.00 0.00 0.00 38 1007.9
20260906181601 90 130 10.0 16.0 0.00 0.00 0.00 39 1008.2
20260906180047 89 148 11.0 22.0 0.00 0.00 0.00 41 1008.3
20260906174546 89 360 13.0 23.0 0.00 0.00 0.00 41 1008.4
20260906173045 89 171 11.0 19.0 0.00 0.00 0.00 42 1008.5
20260906171545 88 163 9.0 22.0 0.00 0.00 0.00 43 1008.6
20260906170043 88 360 13.0 20.0 0.00 0.00 0.00 43 1008.5
20260906164539 87 205 9.0 19.0 0.00 0.00 0.00 47 1008.6
20260906163049 86 198 12.0 19.0 0.00 0.00 0.00 49 1008.8
20260906161535 85 196 17.0 24.0 0.00 0.00 0.00 49 1008.8
20260906160033 85 195 16.0 23.0 0.00 0.00 0.00 50 1008.8
20260906154531 85 213 15.0 22.0 0.00 0.00 0.00 51 1008.6
20260906153033 84 210 14.0 22.0 0.00 0.00 0.00 52 1008.7
20260906151528 83 182 13.0 21.0 0.00 0.00 0.00 54 1008.7
20260906150031 82 210 14.0 18.0 0.00 0.00 0.00 55 1008.7
20260906144526 80 192 10.0 17.0 0.00 0.00 0.00 58 1008.7
20260906143024 77 203 11.0 18.0 0.00 0.00 0.00 61 1008.8
20260906141523 76 186 9.0 15.0 0.00 0.00 0.00 62 1008.8
20260906140023 76 189 9.0 16.0 0.00 0.00 0.00 62 1008.6
20260906134521 75 175 8.0 14.0 0.00 0.00 0.00 62 1008.5
20260906133018 74 186 8.0 15.0 0.00 0.00 0.00 62 1008.2
20260906131518 74 203 9.0 14.0 0.00 0.00 0.00 63 1007.9
20260906130016 74 162 8.0 12.0 0.00 0.00 0.00 63 1008.1
20260906124514 74 161 5.0 11.0 0.00 0.00 0.00 63 1008.3
20260906123018 74 157 4.0 8.0 0.00 0.00 0.00 63 1008.1
20260906121509 74 144 4.0 7.0 0.00 0.00 0.00 62 1007.9
20260906120009 74 148 3.0 9.0 0.00 0.00 0.00 61 1007.8
20260906114522 74 136 4.0 9.0 0.00 0.00 0.00 61 1007.8
20260906113007 74 360 4.0 9.0 0.00 0.00 0.00 60 1007.7
20260906111517 75 134 6.0 11.0 0.00 0.00 0.00 60 1007.8
20260906110007 74 168 2.0 4.0 0.00 0.00 0.00 60 1007.8
20260906104508 74 169 1.0 3.0 0.00 0.00 0.00 60 1007.7
20260906103002 75 169 2.0 6.0 0.00 0.00 0.00 59 1007.5
20260906101502 75 158 5.0 8.0 0.00 0.00 0.00 59 1007.4
20260906100001 75 172 6.0 9.0 0.00 0.00 0.00 58 1007.3
20260906094601 75 159 5.0 9.0 0.00 0.00 0.00 59 1007.2
20260906093059 74 152 4.0 9.0 0.00 0.00 0.00 61 1007.2
20260906091602 74 159 4.0 11.0 0.00 0.00 0.00 62 1007.2
20260906090056 74 163 6.0 10.0 0.00 0.00 0.00 61 1007.1
20260906084553 74 166 5.0 8.0 0.00 0.00 0.00 60 1007.3
20260906083051 75 171 5.0 10.0 0.00 0.00 0.00 59 1007.3
20260906081554 75 198 6.0 10.0 0.00 0.00 0.00 59 1007.3
20260906080052 76 207 6.0 8.0 0.00 0.00 0.00 57 1007.4
20260906074545 78 205 6.0 8.0 0.00 0.00 0.00 54 1007.5
20260906073043 78 169 5.0 11.0 0.00 0.00 0.00 53 1007.3
20260906071537 79 194 6.0 12.0 0.00 0.00 0.00 52 1007.2
20260906070036 79 170 8.0 17.0 0.00 0.00 0.00 52 1007.3
20260906064537 78 163 7.0 12.0 0.00 0.00 0.00 53 1007.5
20260906063031 79 153 6.0 12.0 0.00 0.00 0.00 52 1007.5
20260906061527 80 169 6.0 15.0 0.00 0.00 0.00 50 1007.4
20260906060027 80 147 8.0 14.0 0.00 0.00 0.00 50 1007.4
20260906054524 81 165 7.0 13.0 0.00 0.00 0.00 48 1007.4
20260906053023 82 134 7.0 17.0 0.00 0.00 0.00 47 1007.4
20260906051518 82 360 9.0 23.0 0.00 0.00 0.00 46 1007.3
20260906050016 83 140 11.0 19.0 0.00 0.00 0.00 46 1007.3
20260906044515 83 146 7.0 14.0 0.00 0.00 0.00 45 1007.3
20260906043014 84 360 7.0 18.0 0.00 0.00 0.00 44 1007.3
20260906041520 84 165 10.0 15.0 0.00 0.00 0.00 44 1007.4
20260906040025 85 150 10.0 19.0 0.00 0.00 0.00 42 1007.4
20260906034513 85 360 8.0 17.0 0.00 0.00 0.00 42 1007.3
20260906033012 84 360 6.0 13.0 0.00 0.00 0.00 44 1007.2
20260906031516 84 175 7.0 13.0 0.00 0.00 0.00 45 1006.9
20260906030011 86 142 7.0 14.0 0.00 0.00 0.00 41 1006.5
20260906024510 87 176 7.0 13.0 0.00 0.00 0.00 41 1006.2
20260906023009 87 360 9.0 17.0 0.00 0.00 0.00 40 1005.9
20260906021509 87 159 9.0 16.0 0.00 0.00 0.00 41 1005.9
20260906020010 85 169 8.0 16.0 0.00 0.00 0.00 45 1005.6
20260906014511 87 133 6.0 14.0 0.00 0.00 0.00 42 1005.1
20260906013009 87 175 8.0 14.0 0.00 0.00 0.00 40 1004.8
20260906011506 88 183 7.0 15.0 0.00 0.00 0.00 40 1005.0
20260906010006 90 165 6.0 16.0 0.00 0.00 0.00 37 1005.1
20260906004505 91 165 5.0 13.0 0.00 0.00 0.00 36 1005.0
20260906003005 92 360 9.0 17.0 0.00 0.00 0.00 36 1004.9
20260906001505 92 139 6.0 12.0 0.00 0.00 0.00 33 1004.7
20260906000004 93 172 8.0 13.0 0.00 0.00 0.00 33 1004.5
20260905234503 93 171 9.0 14.0 0.00 0.00 0.00 33 1004.3
20260905233002 93 164 7.0 15.0 0.00 0.00 0.00 32 1004.1
20260905231504 93 181 10.0 17.0 0.00 0.00 0.00 32 1003.9
20260905230002 93 167 6.0 13.0 0.00 0.00 0.00 32 1003.9
20260905224501 94 153 7.0 14.0 0.00 0.00 0.00 32 1004.0
20260905223100 94 120 8.0 19.0 0.00 0.00 0.00 33 1003.9